| time (UTC) | temp C | wind direction | speed KPH | gust KPH | rain 1hr cm | rain 24hr cm | rain mn cm | humidity % | barometer mb |
| 20260504110541 | 8 | 0 | 0.0 | 0.0 | 0.00 | 0.00 | 0.00 | 62 | 1014.5 |
| 20260504100541 | 8 | 0 | 0.0 | 1.6 | 0.00 | 0.00 | 0.00 | 59 | 1014.4 |
| 20260504090116 | 8 | 0 | 0.0 | 0.0 | 0.00 | 0.00 | 0.00 | 57 | 1014.6 |
| 20260504081555 | 8 | 0 | 0.0 | 0.0 | 0.00 | 0.00 | 0.00 | 59 | 1014.7 |
| 20260504081042 | 8 | 0 | 0.0 | 0.0 | 0.00 | 0.00 | 0.00 | 59 | 1014.6 |
| 20260504080544 | 8 | 0 | 0.0 | 0.0 | 0.00 | 0.00 | 0.00 | 58 | 1014.7 |
| 20260504050545 | 7 | 0 | 0.0 | 0.0 | 0.00 | 0.00 | 0.00 | 60 | 1015.4 |
| 20260504045545 | 7 | 0 | 0.0 | 1.6 | 0.00 | 0.00 | 0.00 | 59 | 1015.5 |
| 20260504045044 | 7 | 0 | 0.0 | 3.2 | 0.00 | 0.00 | 0.00 | 58 | 1015.5 |
| 20260504044604 | 7 | 0 | 0.0 | 3.2 | 0.00 | 0.00 | 0.00 | 57 | 1015.5 |
| 20260504044041 | 8 | 0 | 0.0 | 1.6 | 0.00 | 0.00 | 0.00 | 58 | 1015.4 |
| 20260504043541 | 8 | 0 | 0.0 | 3.2 | 0.00 | 0.00 | 0.00 | 59 | 1015.4 |
| 20260504043054 | 8 | 0 | 0.0 | 3.2 | 0.00 | 0.00 | 0.00 | 58 | 1015.3 |
| 20260504042543 | 8 | 0 | 0.0 | 0.0 | 0.00 | 0.00 | 0.00 | 57 | 1015.3 |
| 20260504042043 | 8 | 0 | 0.0 | 1.6 | 0.00 | 0.00 | 0.00 | 57 | 1015.3 |
| 20260504041553 | 8 | 0 | 0.0 | 1.6 | 0.00 | 0.00 | 0.00 | 58 | 1015.3 |
| 20260504041043 | 8 | 0 | 0.0 | 1.6 | 0.00 | 0.00 | 0.00 | 57 | 1015.3 |
| 20260504040541 | 8 | 0 | 0.0 | 1.6 | 0.00 | 0.00 | 0.00 | 56 | 1015.2 |
| 20260504040103 | 8 | 0 | 0.0 | 1.6 | 0.00 | 0.00 | 0.00 | 58 | 1015.2 |
| 20260504035541 | 8 | 0 | 0.0 | 1.6 | 0.00 | 0.00 | 0.00 | 57 | 1015.2 |
| 20260504035043 | 8 | 0 | 0.0 | 1.6 | 0.00 | 0.00 | 0.00 | 57 | 1015.2 |
| 20260504034557 | 8 | 0 | 0.0 | 1.6 | 0.00 | 0.00 | 0.00 | 58 | 1015.1 |
| 20260504034040 | 8 | 0 | 0.0 | 1.6 | 0.00 | 0.00 | 0.00 | 58 | 1015.1 |
| 20260504033544 | 8 | 0 | 0.0 | 0.0 | 0.00 | 0.00 | 0.00 | 57 | 1015.1 |
| 20260504033104 | 9 | 0 | 0.0 | 1.6 | 0.00 | 0.00 | 0.00 | 58 | 1015.1 |
| 20260504032547 | 9 | 0 | 0.0 | 1.6 | 0.00 | 0.00 | 0.00 | 57 | 1015.1 |
| 20260504032042 | 9 | 0 | 0.0 | 1.6 | 0.00 | 0.00 | 0.00 | 57 | 1015.1 |
| 20260504031552 | 9 | 0 | 0.0 | 0.0 | 0.00 | 0.00 | 0.00 | 56 | 1015.0 |
| 20260504031041 | 9 | 0 | 0.0 | 0.0 | 0.00 | 0.00 | 0.00 | 56 | 1015.0 |
| 20260504030544 | 9 | 0 | 0.0 | 1.6 | 0.00 | 0.00 | 0.00 | 56 | 1014.9 |
| 20260504030054 | 9 | 0 | 0.0 | 1.6 | 0.00 | 0.00 | 0.00 | 55 | 1014.9 |
| 20260504025544 | 9 | 0 | 0.0 | 3.2 | 0.00 | 0.00 | 0.00 | 55 | 1014.9 |
| 20260504025044 | 9 | 0 | 0.0 | 3.2 | 0.00 | 0.00 | 0.00 | 54 | 1014.8 |
| 20260504024551 | 9 | 185 | 0.0 | 3.2 | 0.00 | 0.00 | 0.00 | 55 | 1014.8 |
| 20260504024044 | 9 | 0 | 0.0 | 1.6 | 0.00 | 0.00 | 0.00 | 53 | 1014.9 |
| 20260504023541 | 9 | 185 | 0.0 | 1.6 | 0.00 | 0.00 | 0.00 | 54 | 1014.8 |
| 20260504023057 | 9 | 0 | 0.0 | 1.6 | 0.00 | 0.00 | 0.00 | 53 | 1014.8 |
| 20260504022545 | 9 | 0 | 0.0 | 1.6 | 0.00 | 0.00 | 0.00 | 53 | 1014.8 |
| 20260504022047 | 9 | 0 | 0.0 | 1.6 | 0.00 | 0.00 | 0.00 | 53 | 1014.8 |
| 20260504021550 | 9 | 0 | 0.0 | 1.6 | 0.00 | 0.00 | 0.00 | 54 | 1014.8 |
| 20260504021046 | 9 | 0 | 0.0 | 1.6 | 0.00 | 0.00 | 0.00 | 54 | 1014.7 |
| 20260504020544 | 10 | 0 | 0.0 | 3.2 | 0.00 | 0.00 | 0.00 | 52 | 1014.7 |
| 20260504020051 | 10 | 185 | 0.0 | 3.2 | 0.00 | 0.00 | 0.00 | 54 | 1014.7 |
| 20260504015542 | 10 | 0 | 0.0 | 1.6 | 0.00 | 0.00 | 0.00 | 52 | 1014.6 |
| 20260504015044 | 10 | 0 | 0.0 | 1.6 | 0.00 | 0.00 | 0.00 | 52 | 1014.6 |
| 20260504014553 | 10 | 0 | 0.0 | 1.6 | 0.00 | 0.00 | 0.00 | 53 | 1014.6 |
| 20260504014042 | 10 | 0 | 0.0 | 1.6 | 0.00 | 0.00 | 0.00 | 52 | 1014.6 |
| 20260504013545 | 10 | 0 | 0.0 | 1.6 | 0.00 | 0.00 | 0.00 | 54 | 1014.6 |
| 20260504013051 | 10 | 0 | 0.0 | 1.6 | 0.00 | 0.00 | 0.00 | 53 | 1014.5 |
| 20260504012547 | 10 | 0 | 0.0 | 3.2 | 0.00 | 0.00 | 0.00 | 53 | 1014.3 |
| 20260504012044 | 10 | 0 | 0.0 | 3.2 | 0.00 | 0.00 | 0.00 | 55 | 1014.3 |
| 20260504011552 | 10 | 0 | 0.0 | 3.2 | 0.00 | 0.00 | 0.00 | 53 | 1014.3 |
| 20260504011044 | 10 | 185 | 0.0 | 3.2 | 0.00 | 0.00 | 0.00 | 53 | 1014.3 |
| 20260504010544 | 10 | 185 | 0.0 | 1.6 | 0.00 | 0.00 | 0.00 | 51 | 1014.2 |
| 20260504010058 | 10 | 0 | 0.0 | 1.6 | 0.00 | 0.00 | 0.00 | 51 | 1014.2 |
| 20260504005544 | 10 | 185 | 0.0 | 1.6 | 0.00 | 0.00 | 0.00 | 52 | 1014.3 |
| 20260504005044 | 11 | 0 | 0.0 | 1.6 | 0.00 | 0.00 | 0.00 | 51 | 1014.3 |
| 20260504004551 | 11 | 0 | 0.0 | 3.2 | 0.00 | 0.00 | 0.00 | 50 | 1014.1 |
| 20260504004042 | 11 | 0 | 0.0 | 3.2 | 0.00 | 0.00 | 0.00 | 49 | 1014.2 |
| 20260504003547 | 11 | 0 | 0.0 | 3.2 | 0.00 | 0.00 | 0.00 | 50 | 1014.1 |
| 20260504003047 | 11 | 0 | 0.0 | 1.6 | 0.00 | 0.00 | 0.00 | 48 | 1014.2 |
| 20260504002542 | 12 | 0 | 0.0 | 1.6 | 0.00 | 0.00 | 0.00 | 48 | 1014.0 |
| 20260504002042 | 12 | 0 | 0.0 | 0.0 | 0.00 | 0.00 | 0.00 | 47 | 1014.1 |
| 20260504001607 | 12 | 0 | 0.0 | 0.0 | 0.00 | 0.00 | 0.00 | 43 | 1014.0 |
| 20260504001042 | 13 | 0 | 0.0 | 0.0 | 0.00 | 0.00 | 0.00 | 42 | 1014.0 |
| 20260504000543 | 13 | 0 | 0.0 | 1.6 | 0.00 | 0.00 | 0.00 | 42 | 1013.9 |
| 20260504000052 | 13 | 0 | 0.0 | 1.6 | 0.00 | 0.00 | 0.00 | 38 | 1013.9 |
| 20260503235541 | 13 | 0 | 0.0 | 0.0 | 0.00 | 0.00 | 0.00 | 39 | 1013.8 |
| 20260503235042 | 14 | 0 | 0.0 | 0.0 | 0.00 | 0.00 | 0.00 | 37 | 1013.9 |
| 20260503234549 | 15 | 0 | 0.0 | 3.2 | 0.00 | 0.00 | 0.00 | 37 | 1013.8 |
| 20260503234044 | 15 | 0 | 0.0 | 4.8 | 0.00 | 0.00 | 0.00 | 35 | 1013.8 |
| 20260503233544 | 15 | 224 | 0.0 | 6.4 | 0.00 | 0.00 | 0.00 | 35 | 1013.7 |
| 20260503233049 | 15 | 224 | 0.0 | 12.9 | 0.00 | 0.00 | 0.00 | 35 | 1013.6 |
| 20260503232546 | 15 | 0 | 1.6 | 12.9 | 0.00 | 0.00 | 0.00 | 34 | 1013.6 |
| 20260503232045 | 15 | 266 | 4.8 | 12.9 | 0.00 | 0.00 | 0.00 | 33 | 1013.6 |
| 20260503231554 | 15 | 0 | 1.6 | 9.7 | 0.00 | 0.00 | 0.00 | 33 | 1013.6 |
| 20260503231045 | 16 | 307 | 3.2 | 9.7 | 0.00 | 0.00 | 0.00 | 34 | 1013.5 |
| 20260503230544 | 16 | 264 | 1.6 | 6.4 | 0.00 | 0.00 | 0.00 | 32 | 1013.5 |
| 20260503230051 | 16 | 270 | 1.6 | 14.5 | 0.00 | 0.00 | 0.00 | 33 | 1013.4 |
| 20260503225542 | 16 | 146 | 3.2 | 14.5 | 0.00 | 0.00 | 0.00 | 32 | 1013.5 |
| 20260503225042 | 16 | 223 | 3.2 | 12.9 | 0.00 | 0.00 | 0.00 | 33 | 1013.4 |
| 20260503224549 | 16 | 244 | 3.2 | 9.7 | 0.00 | 0.00 | 0.00 | 33 | 1013.4 |
| 20260503224043 | 16 | 0 | 1.6 | 9.7 | 0.00 | 0.00 | 0.00 | 33 | 1013.4 |
| 20260503223543 | 16 | 213 | 3.2 | 11.3 | 0.00 | 0.00 | 0.00 | 33 | 1013.3 |
| 20260503223057 | 16 | 262 | 1.6 | 11.3 | 0.00 | 0.00 | 0.00 | 34 | 1013.4 |
| 20260503222547 | 16 | 270 | 3.2 | 11.3 | 0.00 | 0.00 | 0.00 | 35 | 1013.6 |
| 20260503222043 | 16 | 233 | 0.0 | 16.1 | 0.00 | 0.00 | 0.00 | 33 | 1013.6 |
| 20260503221551 | 16 | 193 | 3.2 | 17.7 | 0.00 | 0.00 | 0.00 | 33 | 1013.6 |
| 20260503221046 | 16 | 290 | 1.6 | 17.7 | 0.00 | 0.00 | 0.00 | 33 | 1013.6 |
| 20260503220544 | 16 | 254 | 3.2 | 11.3 | 0.00 | 0.00 | 0.00 | 32 | 1013.8 |
| 20260503220108 | 16 | 183 | 3.2 | 17.7 | 0.00 | 0.00 | 0.00 | 34 | 1013.6 |
| 20260503215541 | 16 | 227 | 3.2 | 17.7 | 0.00 | 0.00 | 0.00 | 33 | 1013.6 |
| 20260503215044 | 16 | 285 | 4.8 | 17.7 | 0.00 | 0.00 | 0.00 | 35 | 1013.7 |
| 20260503214549 | 16 | 156 | 6.4 | 16.1 | 0.00 | 0.00 | 0.00 | 34 | 1013.6 |
| 20260503214049 | 16 | 199 | 6.4 | 16.1 | 0.00 | 0.00 | 0.00 | 34 | 1013.6 |
| 20260503213544 | 16 | 174 | 6.4 | 16.1 | 0.00 | 0.00 | 0.00 | 33 | 1013.7 |
| 20260503213050 | 16 | 234 | 4.8 | 19.3 | 0.00 | 0.00 | 0.00 | 33 | 1013.8 |
| 20260503212542 | 16 | 245 | 4.8 | 19.3 | 0.00 | 0.00 | 0.00 | 35 | 1013.7 |
| 20260503212042 | 16 | 244 | 4.8 | 16.1 | 0.00 | 0.00 | 0.00 | 33 | 1013.8 |
| 20260503211605 | 16 | 303 | 4.8 | 16.1 | 0.00 | 0.00 | 0.00 | 35 | 1013.6 |
| 20260503211045 | 16 | 226 | 6.4 | 16.1 | 0.00 | 0.00 | 0.00 | 35 | 1013.7 |
| 20260503210544 | 16 | 316 | 4.8 | 14.5 | 0.00 | 0.00 | 0.00 | 35 | 1013.6 |
| 20260503210057 | 16 | 265 | 6.4 | 16.1 | 0.00 | 0.00 | 0.00 | 33 | 1013.7 |
| 20260503205544 | 16 | 251 | 3.2 | 16.1 | 0.00 | 0.00 | 0.00 | 35 | 1013.7 |
| 20260503205044 | 16 | 321 | 3.2 | 16.1 | 0.00 | 0.00 | 0.00 | 37 | 1013.6 |
| 20260503204557 | 16 | 279 | 6.4 | 16.1 | 0.00 | 0.00 | 0.00 | 36 | 1013.7 |
| 20260503204043 | 16 | 232 | 3.2 | 11.3 | 0.00 | 0.00 | 0.00 | 34 | 1013.7 |
| 20260503203543 | 16 | 293 | 4.8 | 11.3 | 0.00 | 0.00 | 0.00 | 33 | 1013.7 |
| 20260503203053 | 16 | 225 | 4.8 | 12.9 | 0.00 | 0.00 | 0.00 | 36 | 1013.8 |
| 20260503202544 | 15 | 256 | 4.8 | 14.5 | 0.00 | 0.00 | 0.00 | 33 | 1013.8 |
| 20260503202047 | 15 | 0 | 4.8 | 16.1 | 0.00 | 0.00 | 0.00 | 32 | 1013.7 |
| 20260503201551 | 15 | 271 | 8.0 | 16.1 | 0.00 | 0.00 | 0.00 | 34 | 1014.0 |
| 20260503201046 | 15 | 294 | 3.2 | 16.1 | 0.00 | 0.00 | 0.00 | 41 | 1013.9 |
| 20260503200547 | 15 | 303 | 1.6 | 24.1 | 0.00 | 0.00 | 0.00 | 35 | 1014.0 |
| 20260503200050 | 15 | 342 | 3.2 | 24.1 | 0.00 | 0.00 | 0.00 | 33 | 1014.1 |
| 20260503195545 | 16 | 5 | 4.8 | 17.7 | 0.00 | 0.00 | 0.00 | 34 | 1014.2 |
| 20260503195042 | 15 | 233 | 4.8 | 17.7 | 0.00 | 0.00 | 0.00 | 33 | 1014.3 |
| 20260503194550 | 15 | 238 | 6.4 | 17.7 | 0.00 | 0.00 | 0.00 | 34 | 1014.4 |
| 20260503194044 | 15 | 299 | 3.2 | 22.5 | 0.00 | 0.00 | 0.00 | 35 | 1014.3 |
| 20260503193544 | 15 | 302 | 4.8 | 22.5 | 0.00 | 0.00 | 0.00 | 35 | 1014.5 |
| 20260503193057 | 15 | 0 | 1.6 | 16.1 | 0.00 | 0.00 | 0.00 | 37 | 1014.5 |
| 20260503192544 | 15 | 257 | 4.8 | 16.1 | 0.00 | 0.00 | 0.00 | 33 | 1014.8 |
| 20260503192044 | 15 | 334 | 1.6 | 14.5 | 0.00 | 0.00 | 0.00 | 38 | 1014.5 |
| 20260503191551 | 15 | 202 | 1.6 | 19.3 | 0.00 | 0.00 | 0.00 | 36 | 1014.7 |
| 20260503191046 | 15 | 225 | 3.2 | 20.9 | 0.00 | 0.00 | 0.00 | 37 | 1014.9 |
| 20260503190544 | 15 | 267 | 6.4 | 20.9 | 0.00 | 0.00 | 0.00 | 35 | 1015.0 |
| 20260503190053 | 15 | 242 | 3.2 | 19.3 | 0.00 | 0.00 | 0.00 | 37 | 1014.9 |
| 20260503185544 | 14 | 0 | 3.2 | 19.3 | 0.00 | 0.00 | 0.00 | 36 | 1014.7 |
| 20260503185044 | 14 | 325 | 4.8 | 19.3 | 0.00 | 0.00 | 0.00 | 38 | 1015.0 |
| 20260503184554 | 14 | 293 | 8.0 | 16.1 | 0.00 | 0.00 | 0.00 | 35 | 1015.0 |
| 20260503184042 | 14 | 40 | 3.2 | 19.3 | 0.00 | 0.00 | 0.00 | 36 | 1015.1 |
| 20260503183545 | 13 | 236 | 4.8 | 19.3 | 0.00 | 0.00 | 0.00 | 37 | 1015.1 |
| 20260503183050 | 13 | 277 | 3.2 | 20.9 | 0.00 | 0.00 | 0.00 | 38 | 1015.3 |
| 20260503182545 | 13 | 263 | 4.8 | 20.9 | 0.00 | 0.00 | 0.00 | 38 | 1015.1 |
| 20260503182044 | 13 | 291 | 8.0 | 20.9 | 0.00 | 0.00 | 0.00 | 38 | 1015.3 |
| 20260503181618 | 13 | 275 | 6.4 | 17.7 | 0.00 | 0.00 | 0.00 | 38 | 1015.4 |
| 20260503181044 | 13 | 268 | 4.8 | 16.1 | 0.00 | 0.00 | 0.00 | 40 | 1015.3 |
| 20260503180544 | 13 | 268 | 3.2 | 16.1 | 0.00 | 0.00 | 0.00 | 41 | 1015.3 |
| 20260503180104 | 13 | 277 | 4.8 | 16.1 | 0.00 | 0.00 | 0.00 | 42 | 1015.4 |
| 20260503175543 | 13 | 246 | 6.4 | 16.1 | 0.00 | 0.00 | 0.00 | 40 | 1015.6 |
| 20260503175043 | 12 | 217 | 4.8 | 20.9 | 0.00 | 0.00 | 0.00 | 43 | 1015.5 |
| 20260503174557 | 12 | 273 | 3.2 | 20.9 | 0.00 | 0.00 | 0.00 | 44 | 1015.6 |
| 20260503174045 | 12 | 292 | 6.4 | 19.3 | 0.00 | 0.00 | 0.00 | 40 | 1015.8 |
| 20260503173546 | 12 | 229 | 6.4 | 20.9 | 0.00 | 0.00 | 0.00 | 42 | 1015.8 |
| 20260503173058 | 12 | 253 | 6.4 | 20.9 | 0.00 | 0.00 | 0.00 | 41 | 1015.8 |
| 20260503172548 | 12 | 269 | 3.2 | 17.7 | 0.00 | 0.00 | 0.00 | 43 | 1015.7 |
| 20260503172048 | 12 | 192 | 4.8 | 17.7 | 0.00 | 0.00 | 0.00 | 42 | 1015.8 |
| 20260503171551 | 12 | 264 | 4.8 | 17.7 | 0.00 | 0.00 | 0.00 | 42 | 1015.8 |
| 20260503171048 | 12 | 146 | 4.8 | 20.9 | 0.00 | 0.00 | 0.00 | 48 | 1015.8 |
| 20260503170544 | 11 | 298 | 4.8 | 20.9 | 0.00 | 0.00 | 0.00 | 46 | 1015.8 |
| 20260503150546 | 8 | 0 | 3.2 | 16.1 | 0.00 | 0.00 | 0.00 | 54 | 1016.8 |
| 20260503150103 | 8 | 247 | 3.2 | 14.5 | 0.00 | 0.00 | 0.00 | 56 | 1016.8 |
| 20260503131044 | 6 | 360 | 4.8 | 12.9 | 0.00 | 0.00 | 0.00 | 63 | 1017.1 |
| 20260503130544 | 6 | 225 | 3.2 | 14.5 | 0.00 | 0.00 | 0.00 | 63 | 1017.1 |
| 20260503120106 | 3 | 274 | 3.2 | 14.5 | 0.00 | 0.00 | 0.00 | 72 | 1017.0 |